Dewpoint
73 72 69 70 61 55 52 50 53 57 52 56 57 59 58 60 59 57 68 68 68 67 69 72 76 76 76 77 77 77 77 77 77 77 78 78 78 77 77 77 77 76 76 75 74 74 74 73 73
68 69 71 65 57 52 52 52 53 54 53 59 59 58 58 58 62 63 66 67 66 66 67 69 76 77 77 77 77 77 76 77 77 77 77 77 77 77 76 75 75 75 75 74 74 74 74 74 73
67 68 67 62 51 51 53 58 51 53 56 57 57 59 59 60 62 64 65 65 64 66 68 71 76 76 77 77 77 77 76 76 77 77 76 77 77 76 76 75 74 74 74 74 74 73 73 73 74
68 67 64 57 45 50 51 53 47 49 55 55 56 57 60 61 62 63 64 64 65 67 69 74 76 76 77 77 77 77 77 76 76 76 76 77 76 75 74 74 73 73 73 73 74 73 73 73 74
68 63 57 49 38 48 51 48 51 49 53 54 55 55 57 61 62 63 64 65 67 68 69 71 76 77 77 77 77 76 76 76 76 76 76 76 75 74 74 73 73 73 73 73 73 73 73 73 73
64 60 52 29 32 38 44 49 51 50 54 55 55 58 60 60 61 64 64 65 66 65 68 71 76 76 76 77 77 77 76 76 76 76 75 75 74 74 74 72 72 72 73 73 73 72 73 73 72
59 56 43 39 31 36 40 43 46 47 50 53 57 58 61 60 63 64 65 66 66 67 69 71 72 75 76 77 77 77 76 76 75 75 75 74 73 73 74 73 71 72 73 73 73 72 71 72 72
59 54 42 39 31 29 38 41 43 44 52 53 59 56 59 62 65 65 65 66 67 66 68 71 72 72 74 74 77 75 75 75 75 75 74 74 73 74 74 74 74 72 71 72 72 71 71 71 72
45 38 40 38 34 32 36 36 44 49 48 55 56 56 60 62 64 64 65 65 67 67 69 69 69 73 75 74 74 76 75 74 74 74 75 75 72 72 72 75 75 73 73 72 73 72 72 72 73
40 42 41 43 40 35 35 37 40 43 46 49 54 57 59 62 62 64 64 63 66 65 68 70 69 72 72 69 75 75 72 70 72 71 74 72 73 75 73 74 73 74 74 72 73 73 73 74 71
41 42 41 41 41 39 35 36 37 43 43 48 56 57 58 60 63 64 64 63 64 66 65 67 71 73 72 73 73 71 71 71 71 75 74 75 73 73 73 74 72 75 73 74 72 72 72 71 69
32 38 40 38 36 40 35 37 37 42 43 49 55 59 59 59 59 60 62 62 63 65 69 71 72 74 75 75 73 72 70 71 70 72 76 77 75 75 73 73 73 73 73 73 73 72 71 70 71
27 36 37 33 35 37 37 38 38 38 44 48 52 58 59 58 58 60 60 62 63 62 68 70 73 76 77 77 73 71 72 69 69 73 75 73 75 75 73 76 75 76 74 73 74 72 72 73 72
26 28 30 29 31 34 39 38 37 38 42 47 51 55 57 58 58 60 60 61 63 64 65 69 73 75 75 76 79 77 76 71 73 70 74 76 77 77 71 76 73 74 73 75 73 74 74 72 70
25 26 28 28 29 34 37 38 37 40 40 46 50 53 55 57 59 60 60 61 63 64 67 69 71 73 74 77 77 77 74 69 72 72 74 76 77 78 78 77 76 75 74 75 74 74 71 68 66
21 24 25 28 30 32 36 37 37 41 40 43 50 51 53 55 56 60 61 61 63 65 69 70 65 71 73 75 76 74 72 74 75 76 71 75 77 77 78 76 73 72 75 75 73 73 72 68 66
21 22 24 26 31 32 34 42 42 42 42 42 47 50 51 55 57 60 60 62 63 67 71 71 71 71 74 75 75 75 74 75 75 75 76 75 74 76 76 75 74 75 73 74 72 69 71 67 67
21 23 24 26 33 30 33 48 48 47 41 43 44 48 52 52 55 59 59 61 64 67 71 72 71 75 75 76 77 76 75 73 75 75 75 74 76 76 77 75 75 76 76 73 74 71 70 68 67
21 25 24 27 35 31 38 51 53 49 45 41 45 46 50 52 55 58 59 61 62 67 70 72 73 76 76 75 73 73 72 75 73 73 74 75 77 77 77 75 75 73 76 70 71 70 68 68 68
23 24 26 27 34 34 33 47 49 50 45 44 42 44 46 48 52 57 60 60 62 66 69 73 73 76 76 75 75 74 73 71 72 73 75 76 75 77 75 76 75 73 73 73 71 70 68 67 69
22 23 25 25 30 32 31 33 41 44 43 43 44 44 45 48 49 57 59 60 62 66 70 72 75 75 76 76 75 77 77 75 73 74 74 75 76 77 74 75 76 76 73 70 72 70 68 66 70
21 22 23 23 31 31 34 30 43 41 45 44 44 44 44 47 51 54 59 62 62 65 69 73 75 76 76 76 75 74 71 71 72 74 72 74 76 76 76 77 76 76 72 73 71 69 69 69 66
22 23 23 23 26 35 37 34 38 42 42 45 45 45 45 48 48 51 58 61 63 65 69 72 75 76 77 77 76 74 74 71 71 70 77 76 77 76 75 75 75 74 72 73 70 70 69 70 68
19 21 22 22 24 26 31 33 33 37 41 40 45 46 47 48 49 52 57 61 63 64 68 70 75 77 77 77 76 76 73 73 70 73 73 73 73 74 75 74 75 74 72 72 71 71 71 70 70
13 17 21 21 22 23 28 33 39 40 41 40 47 48 48 50 50 52 56 60 63 65 67 70 74 76 77 77 76 76 76 75 76 77 73 73 70 71 74 75 75 72 72 72 71 71 71 70 69
12 14 20 24 22 22 28 26 32 40 41 43 45 49 46 49 49 51 56 59 64 65 67 70 73 75 77 76 77 77 76 74 74 75 72 72 70 71 72 73 74 74 71 71 71 70 69 69 68
12 13 15 19 21 21 23 26 27 32 39 41 37 37 38 47 50 52 56 59 63 65 67 70 73 75 77 76 77 77 77 75 74 75 75 73 74 72 73 72 74 72 71 71 72 68 68 69 70
8 13 11 16 24 25 23 29 29 35 38 41 42 40 36 39 50 52 53 59 62 64 66 69 72 75 77 77 77 76 77 76 75 75 75 73 73 73 71 73 71 72 71 71 71 68 69 69 68
10 10 12 14 19 22 25 26 33 41 43 41 39 37 35 38 49 49 53 56 62 64 65 67 70 74 75 76 76 76 76 76 76 76 76 74 75 73 73 71 72 72 70 71 70 69 68 68 68
13 14 13 14 27 21 23 24 26 39 38 35 37 36 38 40 44 49 53 55 59 62 63 66 68 71 74 75 76 76 76 77 76 75 76 75 76 74 72 73 72 71 69 70 69 67 65 68 67
Lifted_Index
-4 -4 -4 -3 -2 -1 -1 -1 -1 -1 -1 -1 -1 -1 -2 -2 -2 -2 -1 -1 -1 -1 -2 -2 -3 -4 -4 -5 -5 -5 -6 -6 -6 -7 -7 -7 -7 -7 -7 -7 -6 -6 -6 -6 -5 -5 -5 -5 -5
-4 -5 -5 -3 -2 -1 -1 -1 -2 -2 -2 -2 -1 -1 -2 -2 -2 -2 -1 -1 -1 -1 -1 -2 -4 -4 -5 -5 -5 -5 -6 -6 -6 -6 -7 -7 -7 -7 -7 -6 -6 -6 -6 -6 -6 -6 -6 -6 -6
-5 -5 -5 -4 -2 -2 -2 -2 -2 -2 -2 -2 -2 -2 -2 -2 -2 -2 -1 -1 -1 -1 -2 -3 -4 -4 -5 -5 -5 -6 -6 -6 -6 -6 -7 -7 -7 -7 -7 -6 -6 -6 -6 -6 -6 -6 -6 -6 -6
-5 -5 -5 -5 -3 -2 -2 -2 -2 -2 -2 -2 -2 -2 -2 -2 -2 -2 -2 -2 -2 -2 -2 -3 -4 -5 -5 -5 -6 -6 -6 -6 -6 -7 -7 -7 -7 -7 -6 -6 -6 -6 -6 -6 -6 -6 -6 -6 -6
-5 -5 -4 -4 -2 -2 -2 -2 -2 -2 -2 -2 -2 -2 -2 -2 -2 -2 -2 -2 -2 -2 -3 -4 -5 -5 -5 -6 -6 -6 -6 -7 -7 -7 -7 -7 -7 -6 -6 -6 -6 -6 -6 -6 -6 -6 -6 -6 -6
-3 -3 -3 -2 -1 -1 -1 -1 -1 -1 -2 -2 -2 -2 -2 -2 -2 -2 -3 -3 -3 -3 -3 -4 -5 -5 -6 -6 -6 -6 -6 -7 -7 -7 -7 -7 -6 -6 -6 -6 -6 -6 -6 -6 -6 -6 -6 -6 -6
-1 -2 -2 -1 0 0 -0 -1 -1 -1 -2 -2 -2 -3 -2 -2 -3 -3 -3 -3 -3 -3 -4 -4 -5 -5 -6 -6 -6 -6 -6 -6 -6 -6 -6 -6 -6 -6 -6 -6 -5 -6 -6 -6 -6 -6 -6 -6 -6
-1 -1 -1 -1 -0 1 1 0 -0 -1 -2 -2 -3 -3 -3 -3 -3 -3 -3 -3 -4 -4 -4 -5 -5 -5 -6 -6 -6 -6 -6 -6 -6 -6 -6 -6 -6 -5 -5 -5 -5 -6 -6 -6 -5 -5 -5 -5 -5
-2 -1 -1 -1 -0 1 1 1 0 -0 -1 -2 -3 -3 -3 -4 -4 -4 -3 -4 -4 -4 -4 -5 -5 -5 -5 -5 -6 -6 -5 -5 -5 -5 -5 -5 -5 -5 -5 -5 -5 -5 -5 -5 -5 -5 -5 -5 -5
-1 -1 -1 -1 -0 0 1 1 1 0 -0 -1 -2 -3 -4 -4 -4 -4 -3 -4 -4 -4 -4 -4 -5 -5 -5 -5 -5 -5 -4 -4 -4 -5 -4 -4 -4 -5 -5 -5 -4 -5 -5 -4 -4 -4 -4 -4 -4
-1 -1 -0 -1 -1 -0 0 1 1 1 -0 -1 -2 -3 -3 -4 -4 -4 -3 -3 -4 -4 -4 -4 -5 -5 -5 -5 -5 -5 -4 -4 -4 -4 -4 -4 -5 -4 -4 -4 -3 -4 -4 -4 -4 -4 -4 -4 -4
-1 -0 -0 -0 -1 -0 -0 0 1 1 0 -1 -2 -3 -3 -3 -3 -3 -3 -3 -3 -4 -4 -5 -5 -6 -6 -6 -5 -5 -4 -4 -4 -4 -4 -5 -5 -4 -4 -4 -4 -4 -4 -4 -4 -4 -4 -4 -4
-1 -1 -0 -0 -0 -1 -1 -0 0 1 0 -0 -1 -2 -3 -3 -3 -3 -3 -3 -3 -3 -4 -5 -6 -6 -6 -6 -5 -5 -4 -4 -4 -4 -5 -5 -5 -4 -4 -4 -5 -4 -4 -4 -4 -4 -4 -4 -4
-1 -1 -1 -0 -0 -1 -1 -1 0 1 1 0 -1 -1 -2 -3 -3 -3 -2 -3 -3 -3 -4 -5 -6 -6 -6 -6 -6 -5 -4 -3 -3 -4 -5 -5 -5 -5 -4 -4 -4 -4 -4 -5 -4 -4 -4 -4 -4
-0 -1 -1 -0 -0 -0 -1 -1 0 1 1 0 -0 -1 -1 -2 -3 -2 -2 -2 -3 -3 -3 -4 -5 -6 -6 -6 -6 -5 -5 -4 -4 -4 -4 -5 -5 -5 -5 -5 -4 -4 -4 -5 -5 -4 -4 -3 -3
0 -0 -1 -1 -0 0 -0 -0 -0 0 1 0 -0 -0 -1 -1 -2 -2 -2 -2 -2 -3 -4 -4 -5 -5 -6 -6 -6 -5 -5 -5 -4 -4 -4 -5 -5 -5 -6 -5 -4 -4 -4 -4 -4 -3 -3 -2 -1
1 -0 -1 -1 -0 0 0 -0 -0 -0 -0 0 0 -0 -0 -1 -1 -2 -2 -2 -2 -3 -4 -4 -5 -5 -6 -6 -6 -6 -6 -5 -5 -5 -5 -5 -5 -5 -6 -5 -5 -4 -4 -4 -3 -3 -2 -1 -0
1 -0 -1 -1 -0 0 -0 -0 -0 -1 -1 -0 0 0 0 -0 -0 -1 -1 -2 -2 -3 -4 -4 -5 -6 -6 -7 -7 -6 -6 -5 -5 -5 -5 -5 -6 -6 -6 -5 -5 -5 -4 -4 -3 -2 -1 -0 -0
0 -0 -1 -1 -1 -0 -1 -0 -0 -1 -1 -1 0 1 1 0 -0 -1 -1 -1 -2 -3 -4 -4 -5 -6 -6 -7 -6 -6 -5 -5 -5 -5 -5 -6 -6 -6 -6 -5 -5 -5 -4 -3 -2 -1 -0 0 0
1 -0 -1 -1 -1 -1 -1 -1 -1 -1 -2 -1 0 1 1 1 0 -1 -1 -1 -2 -3 -4 -5 -5 -6 -6 -6 -6 -6 -5 -5 -5 -5 -6 -6 -6 -6 -5 -5 -5 -4 -4 -3 -2 -1 0 0 -0
2 0 -1 -1 -1 -1 -1 -1 -1 -1 -1 -1 -0 1 1 1 1 -0 -1 -1 -2 -3 -4 -5 -5 -6 -6 -6 -6 -6 -5 -5 -5 -6 -6 -6 -6 -6 -5 -5 -5 -4 -3 -3 -2 -1 -0 0 -0
2 1 -0 -1 -1 -0 -0 -1 -1 -1 -1 -1 -1 0 1 1 1 -0 -1 -2 -2 -3 -4 -5 -6 -6 -6 -6 -6 -6 -5 -5 -5 -5 -6 -7 -7 -6 -6 -6 -5 -4 -3 -2 -2 -1 -0 -0 -1
1 1 -0 -1 -1 -1 -1 -1 -1 -1 -1 -1 -1 -1 -0 0 0 -0 -1 -2 -2 -3 -4 -5 -6 -6 -7 -6 -6 -6 -5 -5 -5 -5 -6 -6 -6 -6 -6 -6 -5 -4 -3 -3 -2 -1 -1 -1 -1
1 0 -1 -1 -1 -1 -1 -0 -0 -1 -1 -1 -1 -2 -1 -1 -1 -1 -1 -2 -3 -4 -5 -6 -7 -7 -7 -7 -7 -6 -6 -5 -5 -6 -6 -6 -6 -6 -6 -6 -6 -4 -3 -3 -2 -2 -2 -1 -1
1 -0 -1 -1 -1 -1 -1 -0 -0 -1 -1 -0 -1 -1 -2 -2 -2 -2 -3 -3 -4 -5 -5 -6 -7 -8 -8 -8 -7 -7 -6 -6 -6 -6 -6 -6 -5 -5 -6 -6 -6 -5 -3 -3 -3 -2 -2 -2 -1
1 1 -0 -0 -1 -1 -1 -1 -1 -1 -1 -0 -0 -1 -2 -3 -3 -3 -3 -4 -5 -6 -6 -7 -8 -8 -8 -8 -8 -8 -7 -7 -7 -7 -6 -6 -5 -5 -6 -6 -6 -5 -4 -3 -3 -2 -2 -2 -1
2 2 1 -0 -1 -1 -1 -1 -1 -1 -0 0 0 -1 -2 -3 -3 -3 -4 -5 -5 -6 -7 -7 -8 -9 -9 -9 -9 -9 -8 -8 -7 -7 -7 -6 -6 -6 -6 -6 -6 -5 -4 -3 -3 -2 -2 -2 -2
3 2 1 0 -1 -1 -1 -1 -1 -1 -1 -0 0 -0 -1 -2 -3 -4 -4 -5 -6 -6 -7 -7 -8 -9 -9 -9 -9 -9 -9 -8 -8 -8 -8 -7 -6 -6 -5 -5 -5 -5 -4 -4 -3 -2 -2 -2 -1
3 3 2 1 -0 -1 -1 -1 -1 -1 -1 -0 0 0 0 -1 -2 -3 -4 -4 -5 -6 -7 -7 -8 -9 -9 -9 -9 -9 -9 -9 -9 -9 -8 -8 -7 -6 -6 -5 -5 -5 -4 -4 -3 -2 -2 -1 -1
3 3 3 1 -0 -1 -1 -1 -1 -1 -1 -0 0 1 1 -0 -2 -3 -4 -4 -5 -6 -6 -7 -8 -9 -9 -9 -9 -9 -9 -9 -9 -9 -9 -8 -8 -7 -6 -6 -5 -5 -4 -4 -3 -2 -1 -1 -2